Location: Kerfeunteun
(48.0046°N, 4.0927°W)
Time: 19:23:51
(UTC+00:00)

Daily predictions for brighter satellites

Satellite Brightness Start Highest point End
(mag) Time Altitude Azimuth Time Altitude Azimuth Time Altitude Azimuth
Cosmos 724 4.5 16:56:35 10° NNW 17:02:18 51° NE 17:07:57 10° ESE
ATLAS 3B R/B 4.1 17:00:31 10° NW 17:05:19 20° N 17:10:10 10° NE
Meteor 2-3 Rocket 4.3 17:00:07 10° NNW 17:05:52 67° W 17:11:33 10° S
CORIOLIS 4.5 17:05:00 10° SE 17:10:08 46° ENE 17:15:19 10° N
Lacrosse 4 Rocket 1.6 17:06:24 10° SSW 17:10:20 50° ESE 17:14:16 10° NE
Cosmos 1805 Rocket 3.5 17:06:00 10° N 17:10:23 68° E 17:14:44 10° SSE
Cosmos 2369 Rocket 4.5 17:08:59 10° WNW 17:11:29 13° NNW 17:13:59 10° N
Cosmos 1633 2.9 17:12:05 10° N 17:15:34 41° ENE 17:19:02 10° SSE
Cosmos 1862 3.9 17:12:17 10° N 17:15:59 35° ENE 17:19:40 10° SE
Cosmos 1238 Rocket 3.8 17:18:33 10° NNW 17:22:25 47° W 17:25:40 10° SSW
NOAA 12 4.4 17:18:39 10° SE 17:23:40 44° ENE 17:28:43 10° N
Cosmos 1980 Rocket 3.1 17:18:57 10° SSE 17:23:46 29° ESE 17:28:36 10° NE
Cosmos 2034 Rocket 4.3 17:20:40 10° N 17:26:46 45° ENE 17:32:49 10° SE
BREEZE-M DEB (TANK) 4.3 17:22:22 10° SW 17:28:37 29° SSE 17:31:38 10° E
APEX 4.2 17:26:25 10° SSE 17:28:55 20° ESE 17:30:29 14° ENE
Cosmos 2297 Rocket 3.2 17:23:37 10° NW 17:29:06 51° WSW 17:34:32 10° S
CZ-4B R/B 4.0 17:27:05 10° NNW 17:29:43 21° WNW 17:32:24 10° WSW
Cosmos 2227 Rocket 3.1 17:24:23 10° NW 17:29:55 55° WSW 17:35:25 10° S
Cosmos 1680 Rocket 3.9 17:25:05 10° S 17:30:01 45° ESE 17:35:00 10° NNE
Okean-O 2.9 17:27:26 10° SE 17:31:40 46° ENE 17:35:56 10° N
Meteor 2-20 4.5 17:27:09 10° S 17:33:18 90° ENE 17:39:30 10° N
Cosmos 1633 Rocket 3.1 17:31:40 10° N 17:36:02 55° ENE 17:40:21 10° SSE
Cosmos 1151 Rocket 3.7 17:34:29 10° SSE 17:38:23 33° E 17:42:19 10° NNE
Sich 1 3.1 17:35:47 10° N 17:40:10 83° W 17:44:33 10° S
Feng Yun 1-1 Rocket 4.3 17:36:39 10° SSE 17:42:12 83° WSW 17:47:41 10° NNW
Cosmos 2263 Rocket 2.9 17:38:59 10° NNW 17:43:57 32° NE 17:48:53 10° ESE
ATLAS 5 CENTAUR R/B 4.4 17:42:22 10° WNW 17:47:34 33° WSW 17:53:19 10° S
H-2A R/B 2.8 17:43:46 10° SSE 17:47:35 84° WSW 17:51:25 10° NNW
Okean O Rocket 4.1 17:47:03 10° SSW 17:50:40 25° W 17:54:18 10° NW
Cosmos 1328 Rocket 3.8 17:46:58 10° SSE 17:51:12 47° E 17:55:26 10° NNE
Cosmos 2228 Rocket 4.3 17:48:03 10° SE 17:51:27 21° E 17:52:40 19° ENE
Cosmos 1869 4.3 17:48:01 10° SSW 17:51:50 48° WNW 17:55:39 10° N
Cosmos 1666 Rocket 3.6 17:47:48 10° N 17:52:11 84° W 17:56:31 10° S
Cosmos 1933 Rocket 4.1 17:49:07 10° N 17:53:07 35° ENE 17:57:07 10° SE
USA 215 3.9 17:48:57 16° ENE 17:53:47 41° N 17:59:48 10° WNW
BREEZE-M DEB (TANK) 2.0 17:50:35 10° W 17:54:08 64° N 17:55:05 31° ENE
ERBS 3.3 17:53:14 10° W 17:56:22 38° NNW 17:58:20 19° NNE
COSMO-SKYMED 1 3.2 17:52:24 10° NNE 17:56:25 35° E 18:00:23 10° SSE
Cosmos 923 Rocket 4.0 17:51:31 10° SSW 17:56:45 87° WNW 18:01:59 10° NNE
Cosmos 1515 Rocket 4.1 17:52:55 10° SSE 17:56:52 34° E 18:00:30 12° NNE
Cosmos 2369 3.7 17:51:27 10° SSW 17:57:08 88° WNW 18:02:53 10° NNE
Tsikada Rocket 4.3 17:51:18 10° SSE 17:57:17 45° E 18:03:21 10° NNE
YAOGAN 6 2.9 17:55:19 10° SE 17:58:35 39° ENE 18:01:52 10° N
Cosmos 1624 Rocket 4.0 17:54:06 10° NNW 17:59:27 67° ENE 18:04:44 10° SSE
Cosmos 2056 Rocket 3.4 17:55:35 10° NNW 18:00:43 66° ENE 18:05:53 10° SSE
Cosmos 1697 Rocket 2.7 17:55:11 10° SSW 18:00:50 87° WNW 18:06:32 10° NNE
NOSS 2-3 (E) 3.7 17:59:52 10° SW 18:04:16 90° SE 18:08:10 18° NE
SeaSat 1 2.4 18:00:01 10° SE 18:04:53 64° NE 18:09:47 10° NNW
SMAP 4.1 18:03:20 10° S 18:07:51 49° W 18:12:23 10° NNW
USA 229 DEB 4.3 18:01:28 10° WSW 18:07:54 51° NW 18:14:10 12° NE
USA 229 4.3 18:01:33 10° WSW 18:07:59 52° NW 18:14:15 12° NE
NOSS 3-1 (C) 4.1 18:05:01 10° WSW 18:10:33 49° NW 18:16:19 13° NE
Cosmos 1464 Rocket 4.3 18:05:55 10° NNW 18:12:01 68° W 18:18:05 10° S
NOSS 3-1 (A) 3.7 18:07:18 10° SW 18:12:55 65° NW 18:18:25 15° NE
FengYun 1-2 T 4.1 18:08:13 10° SSE 18:13:41 71° ENE 18:19:09 10° N
NOSS 2-3 (D) 3.8 18:09:35 10° SW 18:14:00 82° NW 18:17:31 21° NE
Cosmos 2278 3.7 18:09:03 10° SSW 18:14:44 86° WNW 18:20:09 12° NNE
Cosmos 2360 4.1 18:09:05 10° SSW 18:14:47 81° ESE 18:19:48 14° NNE
COSMOS 2455 4.5 18:12:42 10° SE 18:14:51 15° ESE 18:14:51 15° ESE
YAOGAN 1 2.6 18:16:54 10° SSE 18:21:07 54° ENE 18:25:21 10° N
Cosmos 1470 Rocket 3.6 18:19:06 10° N 18:23:37 87° WSW 18:28:05 10° S
Cosmos 1844 Rocket 4.1 18:21:30 10° N 18:24:57 19° NNE 18:24:57 19° NNE
Envisat 3.3 18:21:04 10° S 18:26:07 71° WSW 18:31:14 10° NNW
Cosmos 2227 4.2 18:28:44 10° NNW 18:34:33 88° ENE 18:40:18 10° SSE
CENTAUR R/B 3.8 18:28:25 10° NW 18:35:15 35° NNE 18:37:54 29° ENE
Cosmos 2346 Rocket 4.5 18:29:16 10° S 18:35:30 86° W 18:41:43 10° N
CZ-4 R/B 1.4 18:34:22 10° S 18:38:29 79° WSW 18:42:33 10° NNW
CSL-04 Debris 4.1 18:33:38 10° SSE 18:39:07 82° ENE 18:44:39 10° NNW
NOAA 11 4.1 18:35:00 10° SSE 18:40:18 60° ENE 18:45:40 10° N
Cosmos 1420 Rocket 3.8 18:35:42 10° NNW 18:40:54 69° ENE 18:43:51 26° SE
Cosmos 158 Rocket 4.0 18:35:46 10° SSW 18:41:03 84° WNW 18:44:29 22° NNE
Cosmos 1939 Rocket 4.2 18:43:52 27° N 18:43:52 27° N 18:45:57 10° N
SKYMED 2 3.6 18:41:06 15° N 18:44:41 77° WNW 18:49:00 10° SSW
Cosmos 1606 2.7 18:42:29 10° S 18:45:44 64° SSE 18:45:44 64° SSE
Gblst 52 Del rocket 4.4 18:39:27 10° WNW 18:46:21 73° NNE 18:48:21 45° E
Meteor 1-26 Rocket 4.3 18:41:12 10° S 18:47:03 60° E 18:51:17 19° NNE
Cosmos 1452 Rocket 3.4 18:43:55 10° NNW 18:49:12 65° ENE 18:50:34 47° SE
Lacrosse 4 Rocket 3.4 18:46:01 10° W 18:49:16 22° NW 18:51:27 15° N
CSL-04 Rocket 3.6 18:44:37 10° SSE 18:49:57 84° WSW 18:55:17 10° NNW
Geosat 4.0 18:47:22 27° NNE 18:50:09 77° WNW 18:55:10 10° SW
Cosmos 1933 3.5 18:49:26 10° SSW 18:53:28 71° W 18:54:54 39° N
ATLAS 3B R/B 3.5 18:52:24 10° NNW 18:58:13 30° NNE 18:58:36 30° NNE
USA 238 DEB 3.9 18:52:43 10° NW 18:59:46 59° NE 19:01:31 47° E
USA 238 3.9 18:52:49 10° NW 18:59:52 59° NE 19:01:35 48° E
Meteor 1-20 Rocket 4.3 18:56:28 10° NNW 19:02:21 82° W 19:08:07 10° S
NOSS 3-2 (A) 4.0 18:55:58 10° NW 19:03:10 58° NE 19:05:08 47° E
Meteor 1-25 Rocket 4.3 18:59:42 10° NNW 19:05:24 77° W 19:11:08 10° S
Cosmos 1980 Rocket 2.9 19:01:57 10° SW 19:07:29 52° NW 19:10:55 23° N
SL-16 R/B 2.4 19:02:20 10° S 19:07:07 54° SE 19:07:07 54° SE
GEOS 3 Rocket 3.8 19:06:16 43° NNE 19:07:53 67° NW 19:13:06 10° SW
Ariane Rocket 3.1 19:09:55 58° NNE 19:09:55 58° NNE 19:14:07 10° N
Cosmos 2322 Rocket 2.8 19:08:52 10° S 19:12:37 40° SSE 19:12:37 40° SSE
Cosmos 2263 Rocket 2.9 19:22:44 10° NW 19:28:07 50° WSW 19:31:01 26° S
Cosmos 2228 Rocket 4.2 19:25:05 10° SSW 19:29:21 43° WNW 19:30:15 38° NW
USA 215 3.3 19:36:18 64° NNE 19:36:18 64° NNE 19:42:41 10° NW
IRS-1A Rocket 4.4 19:40:06 73° W 19:40:06 73° W 19:45:40 10° NNW
Cosmos 2279 Rocket 4.2 19:39:31 10° NNW 19:45:42 67° W 19:47:26 47° SSW
NOSS 3-2 (C) 4.0 19:42:24 10° NW 19:49:12 67° NNE 19:49:12 67° NNE
H-2A R/B 4.4 19:54:58 13° N 19:54:58 13° N 19:55:35 10° N
COSMOS 2455 4.3 19:55:24 10° SSW 19:58:04 28° SSW 19:58:04 28° SSW
CENTAUR R/B 3.5 20:19:09 10° NW 20:25:06 57° NNW 20:25:06 57° NNW
ATLAS 3B R/B 4.2 20:43:02 10° NW 20:45:51 27° NW 20:45:51 27° NW
